Find Starlink 32027

NORAD ID: 60143 Int'l Des: 2024-120 Owner: SPXS Country: US Constellation: starlink operational
LEOCIRCULAR

Live-Position

3D-Globus wird geladen...

Über Starlink 32027

Beschreibung wird geladen...

Nächste Überflüge

Passes for default location (London). Set your location on the main map for personalized predictions.

Höhenverlauf

Loading altitude history...

Zweizeiliger Elementsatz

1 60143U 24120J 26127.16758520 .00000426 00000-0 26496-4 0 9998
2 60143 53.1610 47.9600 0001212 70.7424 289.3708 15.30206535105416
Epoch: 7. Mai 2026 • Age: 9 hours

Aktueller Status

Höhe 479.4 km
Geschwindigkeit 7.63 km/s
Subsatellitenpunkt -14.05°S, 179.14°W
Startdatum 27. Juni 2024
Alter 1.8 years
Typ internet

Technische Details

Klassifizierung Payload
Masse 730.00 kg
Trockenmasse 700.00 kg
Gesamtmasse 730.00 kg
Länge 0.30 m
Durchmesser 4.10 m
Spannweite 29.00 m
Form Box + pan
Hersteller SPXS
Bus-Typ Starlink V2M
Phasenstatus In Orbit
Besitzer/Staat SPXS/US

Most Searched